#timestamp,LO_Frequency,Hit,StdDev 
1580770815.1,286046998.0,N
1580770835.9,286046997.9,N
1580770855.7,286046997.4,N
1580770875.5,286046997.4,N
1580770895.4,286046996.5,N
1580770915.2,286046998.5,N
1580770935.0,286046999.2,N
1580770935.9,286046999.2,N
1580770955.8,286046998.8,N
1580770975.6,286046999.3,N
1580770995.5,286047000.5,N
1580771015.3,286046998.8,N
1580771035.1,286046996.7,N
1580771055.9,286047001.1,N
1580771075.7,286047000.6,N
1580771095.6,286047000.9,N
1580771115.4,286046998.3,N
1580771135.2,286046999.3,N
1580771155.1,286046998.1,N
1580771156.0,286046998.1,N
1580771175.8,286047000.5,N
1580771195.7,286046996.9,N
1580771215.5,286046998.3,N
1580771235.3,286046999.5,N
1580771255.2,286046996.9,N
1580771275.0,286046997.2,N
1580771275.9,286046997.2,N
1580771295.8,286046999.4,N
1580771315.6,286046998.6,N
1580771335.4,286046999.0,N
1580771355.3,286046999.1,N
1580771375.1,286046996.5,N
1580771395.8,286046998.3,N
1580771415.7,286047001.1,N
1580771435.5,286047002.7,N
1580771455.4,286046999.9,N
1580771475.2,286047002.7,N
1580771495.0,286046998.7,N
1580771495.9,286046998.7,N
1580771515.8,286046999.1,N
1580771535.6,286046995.3,N
1580771555.4,286046999.5,N
1580771575.3,286046998.4,N
1580771595.1,286046998.7,N
1580771615.9,286046999.0,N
1580771635.7,286046999.4,N
1580771655.5,286046999.2,N
1580771675.4,286046997.0,N
1580771695.2,286046995.0,Y
1580771715.1,286046997.3,P
1580771716.0,286046997.3,P
1580771735.8,286046994.9,P
1580771755.6,286046995.6,Y
1580771775.5,286046999.9,P
1580771795.3,286047001.9,N
1580771815.2,286047003.7,N
1580771835.9,286047003.7,N
1580771855.7,286047004.2,N
1580771875.6,286047002.3,N
1580771895.4,286047000.2,N
1580771915.3,286047001.6,N
1580771935.1,286047003.6,N
1580771936.0,286047003.6,N
1580771955.8,286047006.0,N
1580771975.7,286047004.1,N
1580771995.5,286047002.0,N
1580772015.3,286047002.7,N
1580772035.2,286047004.2,N
1580772055.0,286047003.8,N
1580772055.9,286047003.8,N
1580772075.8,286047003.5,N
1580772095.6,286047003.6,N
1580772115.4,286047003.5,N
1580772135.3,286047002.0,N
1580772155.1,286047000.2,N
1580772175.8,286047001.7,N
1580772195.7,286047003.8,N
1580772215.5,286047003.7,N
1580772235.4,286047004.1,N
1580772255.2,286047005.3,N
1580772275.0,286047003.8,N
1580772275.9,286047003.8,N
1580772295.8,286047003.7,N
1580772315.6,286047003.8,N
1580772335.5,286047002.1,N
1580772355.3,286047000.1,N
1580772375.1,286047000.5,N
1580772395.9,286046999.9,N
1580772415.7,286046998.3,N
1580772435.5,286047001.1,N
1580772455.4,286047001.0,N
1580772475.2,286047000.4,N
1580772495.1,286047001.5,N
1580772496.0,286047001.5,N
1580772515.8,286047003.5,N
1580772535.6,286047004.1,N
1580772555.5,286047002.6,N
1580772575.3,286047002.5,N
1580772595.2,286047002.6,N
1580772615.0,286047001.7,N
1580772615.9,286047001.7,N
1580772635.8,286047001.9,N
1580772655.6,286047001.5,N
1580772675.4,286047003.2,N
1580772695.3,286047003.0,N
1580772715.1,286047004.2,N
1580772735.9,286047003.6,N
1580772755.7,286047002.3,N
1580772775.5,286047001.9,N
1580772795.4,286047001.7,N
1580772815.2,286047003.3,N
1580772835.0,286047003.1,N
1580772836.0,286047003.1,N
1580772855.8,286047003.6,N
1580772875.6,286047003.7,N
1580772895.5,286047003.8,N
1580772915.3,286047001.4,N
1580772935.1,286047004.4,Y
1580772955.9,286047002.8,P
1580772975.7,286047001.5,P
1580772995.6,286047000.9,N
1580773015.4,286046998.2,N
1580773035.2,286046999.4,N
1580773055.1,286047001.1,N
1580773056.0,286047001.1,N
1580773075.8,286046999.0,N
1580773095.6,286046997.4,N
1580773115.5,286046996.7,N
1580773135.3,286046995.3,N
1580773155.2,286046995.0,N
1580773175.9,286046999.3,N
1580773195.7,286046999.1,N
1580773215.6,286046999.6,N
1580773235.4,286046997.9,N
1580773255.2,286046997.9,N
1580773275.1,286046996.0,N
1580773276.0,286046996.0,N
1580773295.8,286046997.9,N
1580773315.7,286046999.1,N
1580773335.5,286047001.0,N
1580773355.3,286047000.7,N
1580773375.2,286046999.5,N
1580773395.0,286046995.8,N
1580773395.9,286046995.8,N
1580773415.8,286046993.5,N
1580773435.6,286046994.2,N
1580773455.4,286046994.0,N
1580773475.3,286046996.2,N
1580773495.1,286046997.9,N
1580773515.8,286047001.0,N
1580773535.7,286047001.2,N
1580773555.5,286046997.6,N
1580773575.4,286046997.6,N
1580773595.2,286046999.3,N
1580773615.0,286046999.0,N
1580773615.9,286046999.0,N
1580773635.8,286046998.4,N
1580773655.6,286046997.3,N
1580773675.4,286046995.3,N
1580773695.3,286046996.4,N
1580773715.1,286046994.9,N
1580773735.9,286046995.0,N
1580773755.7,286046997.5,N
1580773775.5,286046997.3,N
1580773795.4,286046996.6,N
1580773815.2,286046996.7,N
1580773835.1,286046994.9,N
1580773836.0,286046994.9,N
1580773855.8,286046996.3,N
1580773875.6,286046994.1,N
1580773895.5,286046992.1,Y
1580773915.3,286046993.4,P
1580773935.1,286046995.4,N
1580773955.9,286046995.2,P
1580773975.7,286046996.0,Y
1580773995.6,286047000.7,P
1580774015.4,286047000.0,N
1580774035.2,286047002.7,N
1580774055.1,286047000.3,N
1580774056.0,286047000.3,N
1580774075.8,286047000.1,N
1580774095.7,286046999.7,N
1580774115.5,286047001.0,N
1580774135.3,286046998.7,N
1580774155.2,286046999.9,N
1580774175.0,286047001.1,N
1580774175.9,286047001.1,N
1580774195.7,286046998.4,N
1580774215.6,286047001.0,N
1580774235.4,286047001.9,N
1580774255.3,286047000.0,N
1580774275.1,286046998.2,N
1580774276.0,286046998.2,N
1580774295.8,286047000.7,N
1580774315.7,286047000.4,N
1580774335.5,286046999.8,N
1580774355.3,286047000.0,N
1580774375.2,286047000.5,N
1580774395.0,286047000.3,N
1580774395.9,286047000.3,N
